DW4070 Weather Reports


time (UTC)temp
C
wind
direction
speed
KPH
gust
KPH
rain 1hr
cm
rain 24hr
cm
rain mn
cm
humidity
%
barometer
mb
20260506024503 17 232 0.0 6.4 0.00 0.00 0.00 69 1011.8
20260506023106 17 265 0.0 3.2 0.00 0.00 0.00 68 1011.8
20260506021601 17 265 0.0 11.3 0.00 0.00 0.00 67 1011.9
20260506014558 17 189 1.6 9.7 0.00 0.00 0.00 66 1011.5
20260506013102 17 263 1.6 16.1 0.00 0.00 0.00 66 1011.3
20260506011622 18 281 0.0 3.2 0.00 0.00 0.00 66 1011.2
20260506010115 18 281 0.0 4.8 0.00 0.00 0.00 64 1011.1
20260506004556 18 281 0.0 3.2 0.00 0.00 0.00 63 1010.9
20260506003057 18 281 0.0 8.0 0.00 0.00 0.00 61 1010.7
20260506001558 19 281 1.6 9.7 0.00 0.00 0.00 61 1010.5
20260506000059 19 281 1.6 14.5 0.00 0.00 0.00 60 1010.3
20260505234553 20 265 1.6 9.7 0.00 0.00 0.00 60 1010.2
20260505233053 20 262 3.2 16.1 0.00 0.00 0.00 58 1009.9
20260505231554 20 264 0.0 8.0 0.00 0.00 0.00 58 1009.7
20260505230058 21 185 3.2 16.1 0.00 0.00 0.00 58 1009.7
20260505224552 21 269 0.0 6.4 0.00 0.00 0.00 58 1009.3
20260505223050 21 190 1.6 9.7 0.00 0.00 0.00 56 1009.2
20260505221600 21 167 1.6 12.9 0.00 0.00 0.00 55 1009.4
20260505220100 21 224 1.6 11.3 0.00 0.00 0.00 54 1009.3
20260505214553 22 272 0.0 8.0 0.00 0.00 0.00 54 1009.2
20260505213048 22 236 1.6 9.7 0.00 0.00 0.00 54 1009.1
20260505211546 22 273 4.8 12.9 0.00 0.00 0.00 54 1009.2
20260505210051 22 284 1.6 14.5 0.00 0.00 0.00 53 1009.0
20260505204554 23 280 1.6 11.3 0.00 0.00 0.00 55 1009.2
20260505203041 23 271 1.6 11.3 0.00 0.00 0.00 56 1009.1
20260505201543 23 262 1.6 16.1 0.00 0.00 0.00 53 1009.4
20260505200039 23 181 6.4 24.1 0.00 0.00 0.00 51 1009.5
20260505194537 23 264 3.2 16.1 0.00 0.00 0.00 54 1009.7
20260505193041 23 276 4.8 12.9 0.00 0.00 0.00 52 1010.0
20260505191532 23 212 4.8 22.5 0.00 0.00 0.00 52 1010.0
20260505190029 24 275 1.6 19.3 0.00 0.00 0.00 50 1010.3
20260505184528 25 272 4.8 14.5 0.00 0.00 0.00 48 1010.5
20260505183035 25 282 1.6 14.5 0.00 0.00 0.00 49 1010.5
20260505181528 26 215 8.0 22.5 0.00 0.00 0.00 46 1010.4
20260505180024 26 268 0.0 17.7 0.00 0.00 0.00 46 1010.4
20260505174518 25 266 1.6 22.5 0.00 0.00 0.00 50 1010.6
20260505173015 25 270 3.2 14.5 0.00 0.00 0.00 46 1010.7
20260505171512 25 271 1.6 12.9 0.00 0.00 0.00 53 1010.8
20260505170011 25 286 1.6 16.1 0.00 0.00 0.00 48 1011.1
20260505164507 24 207 3.2 12.9 0.00 0.00 0.00 51 1011.4
20260505163007 24 269 0.0 8.0 0.00 0.00 0.00 49 1011.4
20260505161604 23 269 1.6 14.5 0.00 0.00 0.00 49 1011.7
20260505153107 23 269 0.0 16.1 0.00 0.00 0.00 54 1012.2
20260505151550 22 264 3.2 11.3 0.00 0.00 0.00 53 1012.3
20260505124510 13 271 0.0 3.2 0.00 0.00 0.00 86 1012.6
20260505123010 12 267 1.6 6.4 0.00 0.00 0.00 91 1012.7
20260505121502 11 267 0.0 3.2 0.00 0.00 0.00 96 1012.9
20260505120108 11 267 0.0 3.2 0.00 0.00 0.00 96 1012.8
20260505114556 10 267 0.0 0.0 0.00 0.00 0.00 96 1012.8
20260505113110 8 267 0.0 0.0 0.00 0.00 0.00 95 1012.9
20260505111553 8 267 0.0 0.0 0.00 0.00 0.00 95 1013.0
20260505101544 7 267 0.0 0.0 0.00 0.00 0.00 94 1012.3
20260505100043 7 267 0.0 0.0 0.00 0.00 0.00 94 1012.1
20260505094542 7 267 0.0 0.0 0.00 0.00 0.00 93 1012.0
20260505093043 7 267 0.0 0.0 0.00 0.00 0.00 93 1011.8
20260505091540 7 267 0.0 0.0 0.00 0.00 0.00 93 1011.9
20260505090043 7 267 0.0 0.0 0.00 0.00 0.00 93 1011.9
20260505084545 7 267 0.0 0.0 0.00 0.00 0.00 93 1011.8
20260505083046 7 267 0.0 0.0 0.00 0.00 0.00 93 1011.9
20260505081536 7 267 0.0 0.0 0.00 0.00 0.00 93 1011.9
20260505080033 7 267 0.0 0.0 0.00 0.00 0.00 93 1012.0
20260505074533 7 267 0.0 0.0 0.00 0.00 0.00 93 1011.9
20260505073033 7 267 0.0 0.0 0.00 0.00 0.00 92 1011.8
20260505071531 7 267 0.0 0.0 0.00 0.00 0.00 92 1011.7
20260505070039 7 267 0.0 0.0 0.00 0.00 0.00 92 1011.9
20260505064528 7 267 0.0 0.0 0.00 0.00 0.00 92 1011.9
20260505063031 7 267 0.0 0.0 0.00 0.00 0.00 92 1012.0
20260505061525 7 267 0.0 0.0 0.00 0.00 0.00 91 1012.1
20260505060028 8 267 0.0 0.0 0.00 0.00 0.00 91 1012.0
20260505054521 8 267 0.0 0.0 0.00 0.00 0.00 91 1012.0
20260505053021 8 267 0.0 0.0 0.00 0.00 0.00 90 1012.2
20260505051519 8 267 0.0 0.0 0.00 0.00 0.00 90 1012.2
20260505041509 8 267 0.0 0.0 0.00 0.00 0.00 88 1012.6
20260505040007 9 267 0.0 0.0 0.00 0.00 0.00 88 1012.5
20260505034507 9 267 0.0 0.0 0.00 0.00 0.00 87 1012.5
20260505033006 9 267 0.0 0.0 0.00 0.00 0.00 86 1012.5
20260505031509 10 267 0.0 0.0 0.00 0.00 0.00 85 1012.6
20260505030106 10 267 0.0 0.0 0.00 0.00 0.00 84 1012.5